DW1115 Weather Reports


time (UTC)temp
C
wind
direction
speed
KPH
gust
KPH
rain 1hr
cm
rain 24hr
cm
rain mn
cm
humidity
%
barometer
mb
20260506233333 23 284 30.6 48.3 0.00 0.00 0.00 51 1015.6
20260506233004 23 294 30.6 48.3 0.00 0.00 0.00 52 1015.6
20260506232322 23 284 29.0 40.2 0.00 0.00 0.00 52 1015.9
20260506231513 23 277 30.6 43.5 0.00 0.00 0.00 51 1015.9
20260506231328 23 313 32.2 43.5 0.00 0.00 0.00 51 1016.0
20260506230339 24 308 30.6 45.1 0.00 0.00 0.00 51 1016.1
20260506230006 23 279 29.0 45.1 0.00 0.00 0.00 52 1016.0
20260506225328 23 279 32.2 45.1 0.00 0.00 0.00 52 1016.2
20260506224520 23 321 32.2 43.5 0.00 0.00 0.00 52 1016.2
20260506224335 24 284 32.2 45.1 0.00 0.00 0.00 52 1016.3
20260506223325 24 282 32.2 41.8 0.00 0.00 0.00 50 1016.4
20260506223009 24 288 27.4 38.6 0.00 0.00 0.00 50 1016.3
20260506222330 25 299 29.0 35.4 0.00 0.00 0.00 49 1016.7
20260506221521 25 313 25.7 38.6 0.00 0.00 0.00 48 1016.6
20260506221338 25 278 29.0 38.6 0.00 0.00 0.00 48 1016.8
20260506220324 25 275 25.7 38.6 0.00 0.00 0.00 48 1016.9
20260506220009 25 288 29.0 37.0 0.00 0.00 0.00 47 1016.8
20260506215334 25 309 29.0 37.0 0.00 0.00 0.00 46 1016.9
20260506214522 25 250 22.5 30.6 0.00 0.00 0.00 43 1016.9
20260506214324 25 281 20.9 30.6 0.00 0.00 0.00 44 1017.0
20260506213331 25 282 19.3 29.0 0.00 0.00 0.00 43 1017.2
20260506213055 25 271 16.1 24.1 0.00 0.00 0.00 44 1017.1
20260506212340 25 266 19.3 29.0 0.00 0.00 0.00 44 1017.3
20260506211552 25 295 14.5 25.7 0.00 0.00 0.00 43 1017.2
20260506211347 25 240 14.5 32.2 0.00 0.00 0.00 43 1017.3
20260506210357 25 247 12.9 24.1 0.00 0.00 0.00 43 1017.4
20260506210008 24 263 14.5 24.1 0.00 0.00 0.00 43 1017.4
20260506205359 24 245 6.4 17.7 0.00 0.00 0.00 43 1017.6
20260506204549 24 261 6.4 16.1 0.00 0.00 0.00 44 1017.6
20260506204323 24 235 8.0 16.1 0.00 0.00 0.00 43 1017.6
20260506203333 23 155 8.0 19.3 0.00 0.00 0.00 44 1017.8
20260506203024 23 273 12.9 19.3 0.00 0.00 0.00 44 1017.8
20260506202340 23 192 9.7 16.1 0.00 0.00 0.00 44 1018.0
20260506201519 23 202 6.4 14.5 0.00 0.00 0.00 44 1017.9
20260506201326 23 262 9.7 14.5 0.00 0.00 0.00 43 1018.0
20260506200334 23 202 4.8 11.3 0.00 0.00 0.00 46 1018.2
20260506200008 23 223 3.2 11.3 0.00 0.00 0.00 46 1018.2
20260506195321 22 165 6.4 14.5 0.00 0.00 0.00 47 1018.4
20260506194606 23 235 6.4 14.5 0.00 0.00 0.00 48 1018.3
20260506194339 23 194 9.7 12.9 0.00 0.00 0.00 48 1018.4
20260506193322 22 240 6.4 11.3 0.00 0.00 0.00 48 1018.7
20260506193044 22 242 8.0 12.9 0.00 0.00 0.00 48 1018.6
20260506192340 22 251 6.4 12.9 0.00 0.00 0.00 50 1018.7
20260506191549 21 246 8.0 12.9 0.00 0.00 0.00 51 1018.9
20260506191348 21 233 6.4 12.9 0.00 0.00 0.00 51 1019.0
20260506190325 21 238 6.4 14.5 0.00 0.00 0.00 50 1019.3
20260506190052 21 190 8.0 14.5 0.00 0.00 0.00 51 1019.2
20260506185326 21 201 8.0 14.5 0.00 0.00 0.00 53 1019.4
20260506184545 20 219 6.4 12.9 0.00 0.00 0.00 55 1019.3
20260506184332 20 254 4.8 12.9 0.00 0.00 0.00 55 1019.5
20260506183342 20 189 8.0 12.9 0.00 0.00 0.00 57 1019.4
20260506183005 20 229 6.4 11.3 0.00 0.00 0.00 57 1019.3
20260506182331 20 181 8.0 11.3 0.00 0.00 0.00 59 1019.5
20260506181520 18 242 3.2 9.7 0.00 0.00 0.00 62 1019.4
20260506181323 19 240 6.4 9.7 0.00 0.00 0.00 62 1019.5
20260506180354 18 259 3.2 9.7 0.00 0.00 0.00 63 1019.4
20260506180041 18 263 4.8 9.7 0.00 0.00 0.00 63 1019.5
20260506175341 18 196 4.8 11.3 0.00 0.00 0.00 64 1019.5
20260506174535 18 39 0.0 11.3 0.00 0.00 0.00 65 1019.5
20260506174352 18 195 6.4 11.3 0.00 0.00 0.00 64 1019.7
20260506173339 17 112 3.2 9.7 0.00 0.00 0.00 67 1019.8
20260506173005 17 122 3.2 9.7 0.00 0.00 0.00 68 1019.8
20260506172322 17 146 6.4 11.3 0.00 0.00 0.00 70 1020.0
20260506171502 16 154 4.8 8.0 0.00 0.00 0.00 70 1020.0
20260506171330 16 196 6.4 8.0 0.00 0.00 0.00 71 1020.1
20260506170342 16 165 4.8 9.7 0.00 0.00 0.00 73 1020.1
20260506170039 15 180 6.4 9.7 0.00 0.00 0.00 74 1020.0
20260506165345 15 217 1.6 6.4 0.00 0.00 0.00 76 1020.3
20260506164538 15 196 3.2 8.0 0.00 0.00 0.00 76 1020.2
20260506164349 15 206 4.8 11.3 0.00 0.00 0.00 76 1020.3
20260506163325 15 190 4.8 8.0 0.00 0.00 0.00 78 1020.5
20260506163038 14 160 3.2 9.7 0.00 0.00 0.00 79 1020.5
20260506162336 14 279 3.2 9.7 0.00 0.00 0.00 79 1020.6
20260506161542 13 204 1.6 8.0 0.00 0.00 0.00 81 1020.6
20260506161342 13 190 3.2 8.0 0.00 0.00 0.00 81 1020.7
20260506160331 13 242 4.8 8.0 0.00 0.00 0.00 81 1020.6
20260506160012 13 206 3.2 6.4 0.00 0.00 0.00 81 1020.6
20260506155320 13 203 3.2 6.4 0.00 0.00 0.00 81 1020.7
20260506154525 12 185 3.2 8.0 0.00 0.00 0.00 81 1020.8
20260506154328 12 203 4.8 8.0 0.00 0.00 0.00 81 1020.8
20260506153359 12 186 4.8 9.7 0.00 0.00 0.00 80 1020.8
20260506153059 12 158 3.2 9.7 0.00 0.00 0.00 80 1020.7
20260506152326 12 167 4.8 11.3 0.00 0.00 0.00 81 1020.9
20260506151539 12 161 6.4 11.3 0.00 0.00 0.00 80 1020.9
20260506151329 12 171 8.0 11.3 0.00 0.00 0.00 80 1020.9
20260506150338 12 137 3.2 6.4 0.00 0.00 0.00 82 1020.8
20260506150031 12 109 0.0 9.7 0.00 0.00 0.00 83 1020.9
20260506145347 12 70 6.4 9.7 0.00 0.00 0.00 83 1020.9
20260506144543 11 71 8.0 12.9 0.00 0.00 0.00 84 1020.8
20260506144355 11 63 8.0 12.9 0.00 0.00 0.00 85 1020.9
20260506143337 11 74 4.8 9.7 0.00 0.00 0.00 87 1020.8
20260506143014 10 69 4.8 8.0 0.00 0.00 0.00 87 1020.7
20260506142347 10 74 4.8 8.0 0.00 0.00 0.00 88 1020.7
20260506141549 10 66 4.8 9.7 0.00 0.00 0.00 88 1020.6
20260506141357 10 19 4.8 9.7 0.00 0.00 0.00 88 1020.6
20260506140339 10 135 0.0 4.8 0.00 0.00 0.00 90 1020.6
20260506140105 9 135 0.0 4.8 0.00 0.00 0.00 90 1020.5
20260506135330 9 135 4.8 6.4 0.00 0.00 0.00 90 1020.5
20260506134513 8 198 1.6 4.8 0.00 0.00 0.00 89 1020.4
20260506134338 8 198 3.2 4.8 0.00 0.00 0.00 89 1020.4
20260506133324 8 36 3.2 12.9 0.00 0.00 0.00 90 1020.4
20260506133001 8 59 3.2 12.9 0.00 0.00 0.00 90 1020.3
20260506132330 8 38 1.6 4.8 0.00 0.00 0.00 90 1020.3
20260506131519 7 80 0.0 3.2 0.00 0.00 0.00 89 1020.2
20260506131321 7 80 0.0 3.2 0.00 0.00 0.00 89 1020.3
20260506130332 7 98 0.0 9.7 0.00 0.00 0.00 89 1020.1
20260506130106 7 98 1.6 9.7 0.00 0.00 0.00 89 1020.0
20260506125334 8 124 0.0 0.0 0.00 0.00 0.00 88 1020.0
20260506124505 8 176 0.0 0.0 0.00 0.00 0.00 88 1019.9
20260506124321 8 176 0.0 1.6 0.00 0.00 0.00 88 1019.9
20260506123334 9 176 1.6 6.4 0.00 0.00 0.00 89 1019.7
20260506123105 8 252 1.6 6.4 0.00 0.00 0.00 89 1019.7
20260506122320 9 62 1.6 6.4 0.00 0.00 0.00 88 1019.7
20260506121511 9 355 3.2 8.0 0.00 0.00 0.00 89 1019.7
20260506121330 9 58 4.8 8.0 0.00 0.00 0.00 89 1019.6
20260506120336 9 106 4.8 8.0 0.00 0.00 0.00 89 1019.6
20260506120004 9 26 1.6 8.0 0.00 0.00 0.00 89 1019.5
20260506115325 10 355 6.4 8.0 0.00 0.00 0.00 89 1019.5
20260506114515 9 351 4.8 8.0 0.00 0.00 0.00 89 1019.4
20260506114335 9 355 6.4 8.0 0.00 0.00 0.00 89 1019.5
20260506113324 9 337 4.8 6.4 0.00 0.00 0.00 89 1019.4
20260506113015 9 355 3.2 6.4 0.00 0.00 0.00 89 1019.3
20260506112332 9 57 3.2 9.7 0.00 0.00 0.00 89 1019.4
20260506111510 9 58 3.2 8.0 0.00 0.00 0.00 89 1019.3
20260506111334 9 44 4.8 8.0 0.00 0.00 0.00 89 1019.3
20260506110343 9 360 0.0 0.0 0.00 0.00 0.00 89 1019.3
20260506110045 9 355 0.0 0.0 0.00 0.00 0.00 89 1019.2
20260506105328 9 355 0.0 0.0 0.00 0.00 0.00 88 1019.2
20260506104544 9 355 0.0 0.0 0.00 0.00 0.00 89 1019.2
20260506104358 9 294 0.0 0.0 0.00 0.00 0.00 89 1019.2
20260506103324 9 294 0.0 0.0 0.00 0.00 0.00 87 1019.3
20260506103018 8 294 0.0 3.2 0.00 0.00 0.00 87 1019.2
20260506102334 10 263 1.6 4.8 0.00 0.00 0.00 87 1019.3
20260506101523 10 34 0.0 1.6 0.00 0.00 0.00 88 1019.3
20260506101325 10 34 0.0 1.6 0.00 0.00 0.00 88 1019.3
20260506100333 10 34 0.0 3.2 0.00 0.00 0.00 87 1019.4
20260506100105 10 34 0.0 3.2 0.00 0.00 0.00 87 1019.2
20260506095339 10 34 1.6 3.2 0.00 0.00 0.00 87 1019.3
20260506094516 10 34 1.6 4.8 0.00 0.00 0.00 87 1019.4
20260506094331 10 34 1.6 6.4 0.00 0.00 0.00 87 1019.4
20260506093337 10 360 3.2 6.4 0.00 0.00 0.00 87 1019.4
20260506093013 10 5 1.6 6.4 0.00 0.00 0.00 87 1019.3
20260506092327 10 5 4.8 6.4 0.00 0.00 0.00 87 1019.4
20260506091513 10 344 4.8 6.4 0.00 0.00 0.00 87 1019.2
20260506091333 10 355 4.8 6.4 0.00 0.00 0.00 87 1019.2
20260506090337 10 345 0.0 6.4 0.00 0.00 0.00 87 1019.2
20260506090056 10 360 3.2 6.4 0.00 0.00 0.00 87 1019.1
20260506085321 10 355 4.8 8.0 0.00 0.00 0.00 87 1019.1
20260506084535 10 360 4.8 8.0 0.00 0.00 0.00 86 1019.1
20260506084352 10 15 4.8 8.0 0.00 0.00 0.00 86 1019.1
20260506083335 11 355 1.6 4.8 0.00 0.00 0.00 87 1019.1
20260506083041 10 13 0.0 0.0 0.00 0.00 0.00 87 1019.1
20260506082344 11 360 0.0 0.0 0.00 0.00 0.00 87 1019.2
20260506081536 10 355 0.0 4.8 0.00 0.00 0.00 87 1019.1
20260506081326 11 355 0.0 6.4 0.00 0.00 0.00 87 1019.2
20260506080337 11 355 3.2 3.2 0.00 0.00 0.00 87 1019.1
20260506073334 11 355 0.0 0.0 0.00 0.00 0.00 87 1018.8
20260506073112 11 355 0.0 0.0 0.00 0.00 0.00 87 1018.7
20260506072349 11 355 0.0 0.0 0.00 0.00 0.00 87 1018.8
20260506071544 11 355 0.0 1.6 0.00 0.00 0.00 85 1018.7
20260506071347 11 355 0.0 1.6 0.00 0.00 0.00 86 1018.7
20260506070331 11 355 3.2 4.8 0.00 0.00 0.00 86 1018.6
20260506062326 11 263 1.6 4.8 0.00 0.00 0.00 84 1018.4
20260506061547 11 155 0.0 0.0 0.00 0.00 0.00 83 1018.3
20260506061354 11 155 0.0 0.0 0.00 0.00 0.00 83 1018.3
20260506060323 12 155 0.0 3.2 0.00 0.00 0.00 82 1018.2
20260506051350 12 305 14.5 20.9 0.00 0.00 0.00 82 1017.9
20260506050350 12 296 17.7 20.9 0.00 0.00 0.00 82 1017.7
20260506044524 12 297 17.7 24.1 0.00 0.00 0.00 81 1017.4
20260506044323 12 289 17.7 24.1 0.00 0.00 0.00 81 1017.5
20260506043328 12 313 16.1 22.5 0.00 0.00 0.00 80 1017.3
20260506043053 12 312 17.7 22.5 0.00 0.00 0.00 80 1017.2
20260506042355 13 299 16.1 22.5 0.00 0.00 0.00 80 1017.1
20260506041530 12 311 16.1 20.9 0.00 0.00 0.00 80 1016.9
20260506041325 13 295 14.5 20.9 0.00 0.00 0.00 79 1017.1
20260506040354 13 286 16.1 20.9 0.00 0.00 0.00 79 1016.7
20260506035336 13 309 16.1 24.1 0.00 0.00 0.00 78 1016.7
20260506034510 13 311 19.3 25.7 0.00 0.00 0.00 78 1016.6
20260506034328 13 291 16.1 22.5 0.00 0.00 0.00 77 1016.6
20260506033337 13 306 19.3 24.1 0.00 0.00 0.00 77 1016.4
20260506033002 13 296 17.7 29.0 0.00 0.00 0.00 77 1016.2
20260506032328 13 288 22.5 29.0 0.00 0.00 0.00 76 1016.1
20260506031553 13 321 20.9 25.7 0.00 0.00 0.00 75 1016.0
20260506031357 14 297 20.9 30.6 0.00 0.00 0.00 75 1016.1
20260506030327 14 294 22.5 30.6 0.00 0.00 0.00 74 1016.0
20260506030022 14 309 24.1 30.6 0.00 0.00 0.00 74 1015.8
20260506025333 15 317 22.5 29.0 0.00 0.00 0.00 73 1015.9
20260506024511 15 281 24.1 37.0 0.00 0.00 0.00 72 1015.7
20260506024323 15 312 25.7 37.0 0.00 0.00 0.00 71 1015.8
20260506023329 15 309 24.1 30.6 0.00 0.00 0.00 70 1015.8
20260506023005 15 298 22.5 30.6 0.00 0.00 0.00 69 1015.6
20260506022339 16 296 22.5 38.6 0.00 0.00 0.00 68 1015.6
20260506021519 16 304 27.4 35.4 0.00 0.00 0.00 67 1015.5
20260506021329 16 296 27.4 33.8 0.00 0.00 0.00 67 1015.5
20260506020335 16 297 25.7 35.4 0.00 0.00 0.00 66 1015.5
20260506020126 16 318 27.4 35.4 0.00 0.00 0.00 66 1015.5
20260506015325 16 314 24.1 35.4 0.00 0.00 0.00 65 1015.5
20260506014514 16 319 22.5 35.4 0.00 0.00 0.00 64 1015.4
20260506014336 17 285 25.7 35.4 0.00 0.00 0.00 64 1015.5
20260506013326 17 322 22.5 33.8 0.00 0.00 0.00 63 1015.3
20260506013006 17 309 24.1 33.8 0.00 0.00 0.00 63 1015.3
20260506012339 17 304 24.1 35.4 0.00 0.00 0.00 62 1015.4
20260506011525 17 317 22.5 35.4 0.00 0.00 0.00 61 1015.3
20260506011324 18 322 25.7 40.2 0.00 0.00 0.00 61 1015.4
20260506010326 18 325 24.1 40.2 0.00 0.00 0.00 61 1015.5
20260506010045 17 306 27.4 40.2 0.00 0.00 0.00 61 1015.3
20260506005353 18 277 29.0 40.2 0.00 0.00 0.00 59 1015.4
20260506004526 18 274 24.1 33.8 0.00 0.00 0.00 58 1015.3
20260506004325 18 313 22.5 32.2 0.00 0.00 0.00 58 1015.4
20260506003334 18 309 22.5 30.6 0.00 0.00 0.00 58 1015.3
20260506003020 17 317 24.1 33.8 0.00 0.00 0.00 59 1015.2
20260506002326 18 284 24.1 33.8 0.00 0.00 0.00 59 1015.3
20260506001538 17 282 22.5 33.8 0.00 0.00 0.00 60 1015.1
20260506001337 17 264 22.5 30.6 0.00 0.00 0.00 60 1015.2
20260506000323 17 300 20.9 33.8 0.00 0.00 0.00 60 1015.2
20260506000006 17 306 25.7 33.8 0.00 0.00 0.00 59 1015.0
20260505235335 18 274 24.1 32.2 0.00 0.00 0.00 59 1015.0
20260505234523 18 281 24.1 37.0 0.00 0.00 0.00 58 1015.1
20260505234326 18 302 24.1 37.0 0.00 0.00 0.00 58 1015.0